This is the latest recevied weather packets stored in our database for station/object K42C. If no packets are shown the sender has not sent any weather packets the latest 10 day(s).
| Time | Temp. | Humidity | Pressure | Rain* | Wind** | Luminosity | Snow |
|---|---|---|---|---|---|---|---|
| 1778011028 | 12.22° C | 48% | 971.1 hPa | 0 mm | 1.79 m/s, 309° | - | - |
| 1778010630 | 12.22° C | 46% | 971 hPa | 0 mm | 0.89 m/s, 240° | - | - |
| 1778010229 | 12.22° C | 46% | 970.8 hPa | 0 mm | 4.02 m/s, 188° | - | - |
| 1778009832 | 12.78° C | 45% | 970.9 hPa | 0 mm | 3.58 m/s, 207° | - | - |
| 1778009431 | 12.22° C | 45% | 970.9 hPa | 0 mm | 1.34 m/s, 221° | - | - |
| 1778009034 | 12.78° C | 44% | 970.7 hPa | 0 mm | 2.68 m/s, 232° | - | - |
| 1778008633 | 12.78° C | 46% | 970.7 hPa | 0 mm | 0 m/s | - | - |
| 1778008236 | 12.78° C | 44% | 970.6 hPa | 0 mm | 1.34 m/s, 212° | - | - |
| 1778007835 | 12.78° C | 44% | 970.7 hPa | 0 mm | 2.68 m/s, 225° | - | - |
| 1778007438 | 12.78° C | 44% | 970.6 hPa | 0 mm | 0.89 m/s, 217° | - | - |
| 1778007037 | 12.78° C | 45% | 970.4 hPa | 0 mm | 3.13 m/s, 211° | - | - |
| 1778006639 | 12.78° C | 44% | 970.3 hPa | 0 mm | 1.34 m/s, 249° | - | - |
| 1778006238 | 12.78° C | 45% | 970.7 hPa | 0 mm | 3.13 m/s, 238° | - | - |
| 1778005841 | 12.78° C | 43% | 970.6 hPa | 0 mm | 3.13 m/s, 229° | - | - |
| 1778005440 | 12.78° C | 44% | 970.5 hPa | 0 mm | 1.79 m/s, 256° | - | - |
| 1778004642 | 12.78° C | 44% | 970.6 hPa | 0 mm | 3.58 m/s, 262° | - | - |
| 1778004245 | 12.78° C | 43% | 970.3 hPa | 0 mm | 2.68 m/s, 338° | - | - |
| 1778003844 | 12.78° C | 42% | 970.2 hPa | 0 mm | 3.13 m/s, 278° | - | - |
| 1778003446 | 12.78° C | 43% | 970.3 hPa | 0 mm | 3.13 m/s, 288° | - | - |
| 1778003046 | 12.22° C | 44% | 970 hPa | 0 mm | 2.68 m/s, 263° | - | - |
| 1778002648 | 12.22° C | 46% | 969.9 hPa | 0 mm | 1.79 m/s, 262° | - | - |
| 1778001850 | 12.22° C | 44% | 969.9 hPa | 0 mm | 2.68 m/s, 285° | - | - |
| 1778001449 | 12.22° C | 44% | 969.9 hPa | 0 mm | 3.58 m/s, 322° | - | - |
| 1778001052 | 12.22° C | 44% | 969.9 hPa | 0 mm | 4.47 m/s, 263° | - | - |
| 1778000651 | 11.67° C | 46% | 970 hPa | 0 mm | 1.79 m/s, 342° | - | - |
* Rain latest hour (hover to see other rain measurements)
** Current wind speed in m/s (hover to see current wind gust speed)